| time (UTC) | temp F | wind direction | speed knots | gust knots | rain 1hr in | rain 24hr in | rain mn in | humidity % | barometer mb |
| 20260510054517 | 42 | 345 | 1.7 | 3.5 | 0.00 | 0.00 | 0.00 | 84 | 1009.9 |
| 20260510054016 | 42 | 344 | 0.9 | 2.6 | 0.00 | 0.00 | 0.00 | 84 | 1009.9 |
| 20260510053516 | 42 | 0.0 | 0.0 | 0.00 | 0.00 | 0.00 | 84 | 1009.7 | |
| 20260510053016 | 42 | 0.0 | 0.0 | 0.00 | 0.00 | 0.00 | 84 | 1009.6 | |
| 20260510052516 | 43 | 0.0 | 0.0 | 0.00 | 0.00 | 0.00 | 83 | 1009.5 | |
| 20260510052016 | 43 | 0.0 | 0.0 | 0.00 | 0.00 | 0.00 | 83 | 1009.4 | |
| 20260510051516 | 43 | 0.0 | 2.6 | 0.00 | 0.00 | 0.00 | 83 | 1009.3 | |
| 20260510051016 | 43 | 259 | 0.9 | 2.6 | 0.00 | 0.00 | 0.00 | 83 | 1009.3 |
| 20260510050516 | 43 | 289 | 0.9 | 2.6 | 0.00 | 0.00 | 0.00 | 83 | 1009.2 |
| 20260510050016 | 43 | 306 | 0.9 | 1.7 | 0.00 | 0.00 | 0.00 | 82 | 1009.1 |
| 20260510045537 | 43 | 317 | 0.0 | 1.7 | 0.00 | 0.00 | 0.00 | 79 | 1009.0 |
| 20260510045017 | 44 | 0.0 | 0.0 | 0.00 | 0.00 | 0.00 | 75 | 1009.0 | |
| 20260510044516 | 44 | 0.0 | 0.0 | 0.00 | 0.00 | 0.00 | 74 | 1008.9 | |
| 20260510044016 | 44 | 0.0 | 0.0 | 0.00 | 0.00 | 0.00 | 74 | 1008.9 | |
| 20260510043537 | 44 | 0.0 | 0.0 | 0.00 | 0.00 | 0.00 | 74 | 1008.7 | |
| 20260510043016 | 44 | 0.0 | 0.0 | 0.00 | 0.00 | 0.00 | 74 | 1008.6 | |
| 20260510042517 | 45 | 0.0 | 0.0 | 0.00 | 0.00 | 0.00 | 74 | 1008.5 | |
| 20260510042056 | 45 | 0.0 | 0.0 | 0.00 | 0.00 | 0.00 | 74 | 1008.5 | |
| 20260510041516 | 45 | 0.0 | 0.0 | 0.00 | 0.00 | 0.00 | 75 | 1008.3 | |
| 20260510041017 | 46 | 0.0 | 0.0 | 0.00 | 0.00 | 0.00 | 74 | 1008.3 | |
| 20260510040516 | 46 | 0.0 | 0.0 | 0.00 | 0.00 | 0.00 | 71 | 1008.2 | |
| 20260510040016 | 46 | 0.0 | 0.0 | 0.00 | 0.00 | 0.00 | 69 | 1008.1 | |
| 20260510035536 | 46 | 0.0 | 0.0 | 0.00 | 0.00 | 0.00 | 68 | 1008.1 | |
| 20260510035016 | 47 | 0.0 | 0.0 | 0.00 | 0.00 | 0.00 | 66 | 1008.0 | |
| 20260510034516 | 47 | 0.0 | 0.0 | 0.00 | 0.00 | 0.00 | 65 | 1008.0 | |
| 20260510034016 | 47 | 0.0 | 0.0 | 0.00 | 0.00 | 0.00 | 65 | 1008.0 | |
| 20260510033516 | 48 | 0.0 | 0.0 | 0.00 | 0.00 | 0.00 | 64 | 1008.0 | |
| 20260510033016 | 48 | 0.0 | 0.0 | 0.00 | 0.00 | 0.00 | 64 | 1007.9 | |
| 20260510032516 | 49 | 0.0 | 0.0 | 0.00 | 0.00 | 0.00 | 64 | 1007.9 | |
| 20260510032017 | 49 | 0.0 | 0.0 | 0.00 | 0.00 | 0.00 | 63 | 1007.9 | |
| 20260510031537 | 50 | 0.0 | 0.0 | 0.00 | 0.00 | 0.00 | 62 | 1007.8 | |
| 20260510031016 | 50 | 0.0 | 0.0 | 0.00 | 0.00 | 0.00 | 61 | 1007.7 | |
| 20260510030516 | 51 | 0.0 | 0.0 | 0.00 | 0.00 | 0.00 | 61 | 1007.7 | |
| 20260510030016 | 51 | 0.0 | 0.0 | 0.00 | 0.00 | 0.00 | 59 | 1007.5 | |
| 20260510025516 | 51 | 0.0 | 0.9 | 0.00 | 0.00 | 0.00 | 59 | 1007.5 | |
| 20260510025016 | 52 | 317 | 0.0 | 0.9 | 0.00 | 0.00 | 0.00 | 58 | 1007.5 |
| 20260510024516 | 52 | 0.0 | 0.9 | 0.00 | 0.00 | 0.00 | 57 | 1007.5 | |
| 20260510024016 | 53 | 317 | 0.0 | 0.9 | 0.00 | 0.00 | 0.00 | 56 | 1007.4 |
| 20260510023516 | 53 | 0.0 | 2.6 | 0.00 | 0.00 | 0.00 | 55 | 1007.3 | |
| 20260510023017 | 53 | 313 | 0.0 | 2.6 | 0.00 | 0.00 | 0.00 | 55 | 1007.2 |
| 20260510022517 | 53 | 305 | 0.0 | 2.6 | 0.00 | 0.00 | 0.00 | 55 | 1007.2 |
| 20260510022016 | 53 | 301 | 0.9 | 2.6 | 0.00 | 0.00 | 0.00 | 54 | 1007.1 |
| 20260510021516 | 54 | 300 | 0.9 | 2.6 | 0.00 | 0.00 | 0.00 | 53 | 1007.0 |
| 20260510021036 | 54 | 301 | 1.7 | 4.3 | 0.00 | 0.00 | 0.00 | 53 | 1006.9 |
| 20260510020516 | 54 | 313 | 1.7 | 4.3 | 0.00 | 0.00 | 0.00 | 53 | 1006.8 |
| 20260510020016 | 54 | 306 | 1.7 | 4.3 | 0.00 | 0.00 | 0.00 | 53 | 1006.7 |
| 20260510015517 | 54 | 301 | 1.7 | 4.3 | 0.00 | 0.00 | 0.00 | 53 | 1006.7 |
| 20260510015016 | 55 | 312 | 1.7 | 4.3 | 0.00 | 0.00 | 0.00 | 52 | 1006.6 |
| 20260510014516 | 55 | 332 | 1.7 | 4.3 | 0.00 | 0.00 | 0.00 | 52 | 1006.5 |
| 20260510014016 | 55 | 321 | 2.6 | 7.8 | 0.00 | 0.00 | 0.00 | 52 | 1006.3 |
| 20260510013516 | 55 | 322 | 3.5 | 7.8 | 0.00 | 0.00 | 0.00 | 51 | 1006.3 |
| 20260510013036 | 55 | 316 | 2.6 | 7.0 | 0.00 | 0.00 | 0.00 | 51 | 1006.2 |
| 20260510012517 | 55 | 319 | 3.5 | 7.8 | 0.00 | 0.00 | 0.00 | 51 | 1006.0 |
| 20260510012036 | 56 | 327 | 3.5 | 10.4 | 0.00 | 0.00 | 0.00 | 50 | 1006.0 |
| 20260510011516 | 56 | 325 | 5.2 | 10.4 | 0.00 | 0.00 | 0.00 | 50 | 1005.8 |
| 20260510011037 | 56 | 334 | 5.2 | 10.4 | 0.00 | 0.00 | 0.00 | 49 | 1005.7 |
| 20260510010517 | 56 | 334 | 6.1 | 11.3 | 0.00 | 0.00 | 0.00 | 49 | 1005.5 |
| 20260510010016 | 56 | 320 | 4.3 | 11.3 | 0.00 | 0.00 | 0.00 | 48 | 1005.5 |
| 20260510005516 | 57 | 335 | 6.1 | 12.2 | 0.00 | 0.00 | 0.00 | 47 | 1005.4 |
| 20260510005036 | 57 | 325 | 7.8 | 12.2 | 0.00 | 0.00 | 0.00 | 46 | 1005.4 |
| 20260510004516 | 57 | 333 | 6.1 | 10.4 | 0.00 | 0.00 | 0.00 | 46 | 1005.3 |
| 20260510004016 | 57 | 329 | 7.0 | 13.9 | 0.00 | 0.00 | 0.00 | 45 | 1005.3 |
| 20260510003516 | 58 | 325 | 7.0 | 13.9 | 0.00 | 0.00 | 0.00 | 45 | 1005.2 |
| 20260510003017 | 58 | 328 | 8.7 | 15.6 | 0.00 | 0.00 | 0.00 | 45 | 1005.0 |
| 20260510002516 | 58 | 333 | 8.7 | 15.6 | 0.00 | 0.00 | 0.00 | 45 | 1005.0 |
| 20260510002017 | 58 | 334 | 8.7 | 14.8 | 0.00 | 0.00 | 0.00 | 44 | 1004.8 |
| 20260510001516 | 58 | 339 | 7.0 | 13.9 | 0.00 | 0.00 | 0.00 | 44 | 1004.7 |
| 20260510001015 | 59 | 343 | 7.8 | 17.4 | 0.00 | 0.00 | 0.00 | 44 | 1004.7 |
| 20260510000536 | 59 | 337 | 9.6 | 17.4 | 0.00 | 0.00 | 0.00 | 43 | 1004.6 |
| 20260510000016 | 59 | 338 | 8.7 | 14.8 | 0.00 | 0.00 | 0.00 | 40 | 1004.5 |
| 20260509235537 | 59 | 335 | 7.8 | 13.0 | 0.00 | 0.00 | 0.00 | 40 | 1004.4 |
| 20260509235016 | 60 | 324 | 8.7 | 14.8 | 0.00 | 0.00 | 0.00 | 40 | 1004.3 |
| 20260509234516 | 60 | 333 | 6.1 | 14.8 | 0.00 | 0.00 | 0.00 | 41 | 1004.2 |
| 20260509234017 | 60 | 318 | 7.8 | 17.4 | 0.00 | 0.00 | 0.00 | 41 | 1004.2 |
| 20260509233517 | 60 | 322 | 10.4 | 18.2 | 0.00 | 0.00 | 0.00 | 43 | 1004.1 |
| 20260509233017 | 61 | 316 | 10.4 | 18.2 | 0.00 | 0.00 | 0.00 | 44 | 1003.9 |
| 20260509232516 | 61 | 313 | 9.6 | 18.2 | 0.00 | 0.00 | 0.00 | 45 | 1003.8 |
| 20260509232016 | 62 | 319 | 10.4 | 18.2 | 0.00 | 0.00 | 0.00 | 45 | 1003.6 |
| 20260509231516 | 63 | 332 | 9.6 | 18.2 | 0.00 | 0.00 | 0.00 | 47 | 1003.4 |
| 20260509230515 | 64 | 309 | 9.6 | 19.1 | 0.00 | 0.00 | 0.00 | 43 | 1003.2 |
| 20260509230035 | 64 | 317 | 12.2 | 19.1 | 0.00 | 0.00 | 0.00 | 41 | 1003.0 |
| 20260509225516 | 65 | 314 | 13.0 | 19.1 | 0.00 | 0.00 | 0.00 | 40 | 1002.9 |
| 20260509225035 | 65 | 302 | 11.3 | 16.5 | 0.00 | 0.00 | 0.00 | 38 | 1002.7 |
| 20260509224515 | 66 | 302 | 8.7 | 16.5 | 0.00 | 0.00 | 0.00 | 38 | 1002.6 |
| 20260509224035 | 66 | 291 | 11.3 | 19.1 | 0.00 | 0.00 | 0.00 | 37 | 1002.4 |
| 20260509223516 | 66 | 315 | 11.3 | 19.1 | 0.00 | 0.00 | 0.00 | 36 | 1002.4 |
| 20260509223015 | 66 | 287 | 6.1 | 13.0 | 0.00 | 0.00 | 0.00 | 38 | 1002.3 |
| 20260509222516 | 66 | 299 | 7.8 | 13.0 | 0.00 | 0.00 | 0.00 | 38 | 1002.3 |
| 20260509222015 | 66 | 289 | 7.8 | 17.4 | 0.00 | 0.00 | 0.00 | 37 | 1002.2 |
| 20260509221515 | 67 | 299 | 11.3 | 18.2 | 0.00 | 0.00 | 0.00 | 37 | 1002.2 |
| 20260509221016 | 67 | 297 | 11.3 | 18.2 | 0.00 | 0.00 | 0.00 | 37 | 1002.0 |
| 20260509220515 | 67 | 306 | 8.7 | 15.6 | 0.00 | 0.00 | 0.00 | 37 | 1001.9 |
| 20260509220016 | 67 | 282 | 10.4 | 20.9 | 0.00 | 0.00 | 0.00 | 36 | 1001.9 |
| 20260509215517 | 67 | 283 | 13.9 | 24.3 | 0.00 | 0.00 | 0.00 | 36 | 1001.8 |
| 20260509215037 | 67 | 282 | 13.0 | 24.3 | 0.00 | 0.00 | 0.00 | 35 | 1001.7 |
| 20260509214537 | 68 | 263 | 11.3 | 17.4 | 0.00 | 0.00 | 0.00 | 37 | 1001.6 |
| 20260509214016 | 68 | 273 | 12.2 | 23.5 | 0.00 | 0.00 | 0.00 | 37 | 1001.5 |
| 20260509213515 | 68 | 271 | 12.2 | 23.5 | 0.00 | 0.00 | 0.00 | 38 | 1001.6 |
| 20260509213056 | 68 | 249 | 8.7 | 16.5 | 0.00 | 0.00 | 0.00 | 39 | 1001.6 |
| 20260509212515 | 67 | 240 | 8.7 | 17.4 | 0.00 | 0.00 | 0.00 | 39 | 1001.6 |
| 20260509212017 | 67 | 235 | 10.4 | 17.4 | 0.00 | 0.00 | 0.00 | 42 | 1001.7 |
| 20260509211515 | 66 | 237 | 11.3 | 20.9 | 0.00 | 0.00 | 0.00 | 41 | 1001.8 |
| 20260509211016 | 66 | 243 | 12.2 | 20.9 | 0.00 | 0.00 | 0.00 | 42 | 1001.9 |
| 20260509210517 | 66 | 242 | 8.7 | 16.5 | 0.00 | 0.00 | 0.00 | 45 | 1001.8 |
| 20260509210015 | 65 | 236 | 12.2 | 17.4 | 0.00 | 0.00 | 0.00 | 45 | 1001.8 |
| 20260509205515 | 65 | 233 | 7.8 | 17.4 | 0.00 | 0.00 | 0.00 | 46 | 1001.8 |
| 20260509205015 | 65 | 258 | 8.7 | 15.6 | 0.00 | 0.00 | 0.00 | 46 | 1001.8 |
| 20260509204515 | 65 | 249 | 8.7 | 15.6 | 0.00 | 0.00 | 0.00 | 48 | 1001.9 |
| 20260509204015 | 65 | 233 | 8.7 | 13.9 | 0.00 | 0.00 | 0.00 | 48 | 1001.9 |
| 20260509203515 | 65 | 236 | 8.7 | 14.8 | 0.00 | 0.00 | 0.00 | 47 | 1001.9 |
| 20260509203035 | 66 | 232 | 8.7 | 15.6 | 0.00 | 0.00 | 0.00 | 46 | 1001.9 |
| 20260509202515 | 66 | 243 | 8.7 | 15.6 | 0.00 | 0.00 | 0.00 | 46 | 1001.9 |
| 20260509202035 | 66 | 230 | 7.8 | 15.6 | 0.00 | 0.00 | 0.00 | 47 | 1001.9 |
| 20260509201535 | 65 | 262 | 5.2 | 11.3 | 0.00 | 0.00 | 0.00 | 48 | 1002.0 |
| 20260509201015 | 65 | 252 | 6.1 | 13.9 | 0.00 | 0.00 | 0.00 | 49 | 1002.0 |
| 20260509200516 | 64 | 249 | 9.6 | 13.9 | 0.00 | 0.00 | 0.00 | 50 | 1002.0 |
| 20260509200035 | 64 | 249 | 7.0 | 13.0 | 0.00 | 0.00 | 0.00 | 52 | 1002.0 |
| 20260509195515 | 64 | 237 | 8.7 | 14.8 | 0.00 | 0.00 | 0.00 | 51 | 1002.1 |
| 20260509195016 | 63 | 234 | 8.7 | 14.8 | 0.00 | 0.00 | 0.00 | 50 | 1002.1 |
| 20260509194515 | 63 | 240 | 7.8 | 13.9 | 0.00 | 0.00 | 0.00 | 52 | 1002.1 |
| 20260509194015 | 63 | 233 | 7.0 | 13.0 | 0.00 | 0.00 | 0.00 | 53 | 1002.2 |
| 20260509193515 | 63 | 239 | 8.7 | 13.0 | 0.00 | 0.00 | 0.00 | 51 | 1002.2 |
| 20260509193035 | 62 | 227 | 7.8 | 12.2 | 0.00 | 0.00 | 0.00 | 54 | 1002.3 |
| 20260509192516 | 62 | 246 | 7.8 | 13.9 | 0.00 | 0.00 | 0.00 | 56 | 1002.2 |
| 20260509192035 | 61 | 248 | 7.0 | 13.9 | 0.00 | 0.00 | 0.00 | 58 | 1002.2 |
| 20260509191515 | 61 | 258 | 8.7 | 13.0 | 0.00 | 0.00 | 0.00 | 58 | 1002.2 |
| 20260509191016 | 61 | 258 | 7.8 | 12.2 | 0.00 | 0.00 | 0.00 | 60 | 1002.3 |
| 20260509190515 | 60 | 251 | 7.0 | 11.3 | 0.00 | 0.00 | 0.00 | 63 | 1002.2 |
| 20260509190015 | 60 | 233 | 3.5 | 10.4 | 0.00 | 0.00 | 0.00 | 69 | 1002.3 |
| 20260509185536 | 59 | 250 | 6.1 | 10.4 | 0.00 | 0.00 | 0.00 | 67 | 1002.4 |
| 20260509185015 | 58 | 238 | 5.2 | 10.4 | 0.00 | 0.00 | 0.00 | 68 | 1002.3 |
| 20260509184515 | 58 | 253 | 6.1 | 10.4 | 0.00 | 0.00 | 0.00 | 68 | 1002.4 |
| 20260509184035 | 58 | 236 | 5.2 | 10.4 | 0.00 | 0.00 | 0.00 | 68 | 1002.4 |
| 20260509183515 | 57 | 238 | 7.0 | 10.4 | 0.00 | 0.00 | 0.00 | 68 | 1002.4 |
| 20260509183015 | 57 | 227 | 6.1 | 10.4 | 0.00 | 0.00 | 0.00 | 68 | 1002.4 |
| 20260509182515 | 57 | 238 | 5.2 | 10.4 | 0.00 | 0.00 | 0.00 | 68 | 1002.5 |
| 20260509182015 | 57 | 220 | 3.5 | 11.3 | 0.00 | 0.00 | 0.00 | 67 | 1002.3 |
| 20260509181535 | 57 | 237 | 7.0 | 11.3 | 0.00 | 0.00 | 0.00 | 66 | 1002.5 |
| 20260509181016 | 57 | 254 | 6.1 | 11.3 | 0.00 | 0.00 | 0.00 | 67 | 1002.7 |
| 20260509180515 | 57 | 251 | 7.8 | 13.0 | 0.00 | 0.00 | 0.00 | 67 | 1002.7 |
| 20260509180015 | 57 | 255 | 7.0 | 13.0 | 0.00 | 0.00 | 0.00 | 66 | 1002.7 |
| 20260509175515 | 57 | 258 | 5.2 | 12.2 | 0.00 | 0.00 | 0.00 | 65 | 1002.4 |
| 20260509175016 | 57 | 255 | 7.0 | 14.8 | 0.00 | 0.00 | 0.00 | 66 | 1002.3 |
| 20260509174537 | 57 | 268 | 7.0 | 14.8 | 0.00 | 0.00 | 0.00 | 64 | 1002.7 |
| 20260509174018 | 57 | 290 | 7.8 | 13.0 | 0.00 | 0.00 | 0.00 | 63 | 1002.6 |
| 20260509173517 | 57 | 291 | 6.1 | 13.0 | 0.00 | 0.00 | 0.00 | 63 | 1002.7 |
| 20260509173037 | 57 | 297 | 6.1 | 10.4 | 0.00 | 0.00 | 0.00 | 63 | 1002.4 |
| 20260509172517 | 57 | 306 | 3.5 | 11.3 | 0.00 | 0.00 | 0.00 | 63 | 1002.3 |
| 20260509172017 | 57 | 303 | 7.0 | 11.3 | 0.00 | 0.00 | 0.00 | 65 | 1002.4 |
| 20260509171517 | 57 | 300 | 6.1 | 9.6 | 0.00 | 0.00 | 0.00 | 64 | 1002.3 |
| 20260509171017 | 57 | 308 | 6.1 | 12.2 | 0.00 | 0.00 | 0.00 | 64 | 1002.3 |
| 20260509170517 | 58 | 301 | 7.8 | 12.2 | 0.00 | 0.00 | 0.00 | 67 | 1002.5 |
| 20260509170018 | 58 | 300 | 7.0 | 13.9 | 0.00 | 0.00 | 0.00 | 67 | 1002.7 |
| 20260509165517 | 58 | 271 | 8.7 | 14.8 | 0.00 | 0.00 | 0.00 | 68 | 1002.7 |
| 20260509165017 | 58 | 291 | 9.6 | 20.9 | 0.00 | 0.00 | 0.00 | 68 | 1002.6 |
| 20260509164539 | 58 | 268 | 13.0 | 20.9 | 0.00 | 0.00 | 0.00 | 67 | 1002.6 |
| 20260509164017 | 58 | 267 | 10.4 | 17.4 | 0.00 | 0.00 | 0.00 | 68 | 1002.6 |
| 20260509163536 | 58 | 279 | 8.7 | 17.4 | 0.00 | 0.00 | 0.00 | 68 | 1002.4 |
| 20260509163017 | 58 | 279 | 11.3 | 17.4 | 0.00 | 0.00 | 0.00 | 67 | 1002.4 |
| 20260509162517 | 58 | 273 | 10.4 | 17.4 | 0.00 | 0.00 | 0.00 | 67 | 1002.3 |
| 20260509162018 | 59 | 275 | 11.3 | 17.4 | 0.00 | 0.00 | 0.00 | 65 | 1002.2 |
| 20260509161619 | 59 | 277 | 9.6 | 13.9 | 0.00 | 0.00 | 0.00 | 65 | 1002.0 |
| 20260509161017 | 59 | 260 | 9.6 | 15.6 | 0.00 | 0.00 | 0.00 | 66 | 1002.0 |
| 20260509160517 | 59 | 257 | 9.6 | 20.0 | 0.00 | 0.00 | 0.00 | 66 | 1002.0 |
| 20260509160018 | 59 | 254 | 13.0 | 20.0 | 0.00 | 0.00 | 0.00 | 66 | 1001.8 |
| 20260509155517 | 60 | 252 | 12.2 | 20.9 | 0.00 | 0.00 | 0.00 | 65 | 1001.6 |
| 20260509155017 | 60 | 259 | 13.0 | 20.9 | 0.00 | 0.00 | 0.00 | 65 | 1001.6 |
| 20260509154517 | 60 | 276 | 11.3 | 19.1 | 0.00 | 0.00 | 0.00 | 63 | 1001.5 |
| 20260509154017 | 60 | 267 | 9.6 | 20.0 | 0.00 | 0.00 | 0.00 | 63 | 1001.5 |
| 20260509153537 | 60 | 246 | 12.2 | 20.0 | 0.00 | 0.00 | 0.00 | 64 | 1001.2 |
| 20260509153017 | 61 | 258 | 11.3 | 18.2 | 0.00 | 0.00 | 0.00 | 63 | 1001.2 |
| 20260509152518 | 61 | 258 | 10.4 | 17.4 | 0.00 | 0.00 | 0.00 | 65 | 1001.0 |
| 20260509152017 | 61 | 260 | 9.6 | 18.2 | 0.00 | 0.00 | 0.00 | 63 | 1001.0 |
| 20260509151517 | 61 | 267 | 10.4 | 20.0 | 0.00 | 0.00 | 0.00 | 65 | 1001.0 |
| 20260509151017 | 60 | 266 | 12.2 | 20.0 | 0.00 | 0.00 | 0.00 | 63 | 1001.0 |
| 20260509150537 | 61 | 269 | 12.2 | 19.1 | 0.00 | 0.00 | 0.00 | 66 | 1001.2 |
| 20260509150038 | 60 | 257 | 13.0 | 25.2 | 0.00 | 0.00 | 0.00 | 66 | 1001.1 |
| 20260509145517 | 60 | 257 | 15.6 | 25.2 | 0.00 | 0.00 | 0.00 | 65 | 1001.1 |
| 20260509145018 | 60 | 255 | 13.9 | 20.9 | 0.00 | 0.00 | 0.00 | 66 | 1000.9 |
| 20260509144518 | 60 | 239 | 12.2 | 20.0 | 0.00 | 0.00 | 0.00 | 65 | 1000.9 |
| 20260509144017 | 61 | 230 | 12.2 | 20.0 | 0.00 | 0.00 | 0.00 | 64 | 1000.8 |
| 20260509143516 | 61 | 237 | 10.4 | 20.0 | 0.00 | 0.00 | 0.00 | 65 | 1000.8 |
| 20260509143017 | 61 | 239 | 11.3 | 20.0 | 0.00 | 0.00 | 0.00 | 65 | 1001.0 |
| 20260509142517 | 61 | 261 | 10.4 | 21.7 | 0.00 | 0.00 | 0.00 | 65 | 1001.0 |
| 20260509142017 | 60 | 242 | 11.3 | 21.7 | 0.00 | 0.00 | 0.00 | 66 | 1001.1 |
| 20260509141537 | 60 | 254 | 13.0 | 18.2 | 0.00 | 0.00 | 0.00 | 66 | 1001.0 |
| 20260509141017 | 60 | 254 | 12.2 | 18.2 | 0.00 | 0.00 | 0.00 | 68 | 1001.0 |
| 20260509140536 | 59 | 233 | 10.4 | 19.1 | 0.00 | 0.00 | 0.00 | 67 | 1001.0 |
| 20260509140016 | 59 | 232 | 11.3 | 19.1 | 0.00 | 0.00 | 0.00 | 67 | 1001.0 |
| 20260509135516 | 59 | 244 | 12.2 | 19.1 | 0.00 | 0.00 | 0.00 | 68 | 1001.0 |
| 20260509135016 | 59 | 247 | 13.0 | 20.9 | 0.00 | 0.00 | 0.00 | 67 | 1001.1 |
| 20260509134516 | 59 | 241 | 12.2 | 20.9 | 0.00 | 0.00 | 0.00 | 67 | 1001.0 |
| 20260509134018 | 58 | 236 | 9.6 | 15.6 | 0.00 | 0.00 | 0.00 | 68 | 1001.0 |
| 20260509133538 | 58 | 235 | 8.7 | 15.6 | 0.00 | 0.00 | 0.00 | 70 | 1000.9 |
| 20260509133016 | 57 | 224 | 7.0 | 15.6 | 0.00 | 0.00 | 0.00 | 73 | 1001.0 |
| 20260509132516 | 57 | 234 | 7.0 | 13.9 | 0.00 | 0.00 | 0.00 | 74 | 1001.1 |
| 20260509132017 | 56 | 224 | 7.8 | 13.9 | 0.00 | 0.00 | 0.00 | 75 | 1001.1 |
| 20260509131518 | 56 | 211 | 7.0 | 13.0 | 0.00 | 0.00 | 0.00 | 75 | 1001.3 |
| 20260509131016 | 55 | 244 | 7.8 | 13.9 | 0.00 | 0.00 | 0.00 | 76 | 1001.5 |
| 20260509130517 | 55 | 235 | 8.7 | 13.9 | 0.00 | 0.00 | 0.00 | 76 | 1001.4 |
| 20260509130016 | 55 | 232 | 9.6 | 18.2 | 0.00 | 0.00 | 0.00 | 78 | 1001.2 |
| 20260509125556 | 55 | 211 | 7.8 | 18.2 | 0.00 | 0.00 | 0.00 | 80 | 1001.1 |
| 20260509125016 | 55 | 211 | 7.8 | 13.9 | 0.00 | 0.00 | 0.00 | 81 | 1001.1 |
| 20260509124557 | 54 | 190 | 6.1 | 14.8 | 0.00 | 0.00 | 0.00 | 82 | 1001.2 |
| 20260509124016 | 54 | 210 | 7.8 | 14.8 | 0.00 | 0.00 | 0.00 | 82 | 1001.1 |
| 20260509123516 | 54 | 189 | 7.0 | 13.9 | 0.00 | 0.00 | 0.00 | 83 | 1001.4 |
| 20260509123036 | 53 | 178 | 6.1 | 14.8 | 0.00 | 0.00 | 0.00 | 84 | 1001.4 |
| 20260509122516 | 53 | 184 | 7.0 | 14.8 | 0.00 | 0.00 | 0.00 | 85 | 1001.5 |
| 20260509122017 | 52 | 192 | 6.1 | 12.2 | 0.00 | 0.00 | 0.00 | 86 | 1001.6 |
| 20260509121516 | 52 | 204 | 6.1 | 12.2 | 0.00 | 0.00 | 0.00 | 87 | 1001.6 |
| 20260509121037 | 52 | 195 | 5.2 | 12.2 | 0.00 | 0.00 | 0.00 | 88 | 1001.7 |
| 20260509120516 | 51 | 179 | 5.2 | 11.3 | 0.00 | 0.00 | 0.00 | 88 | 1001.7 |
| 20260509120017 | 51 | 187 | 5.2 | 11.3 | 0.00 | 0.00 | 0.00 | 88 | 1001.7 |
| 20260509115517 | 51 | 194 | 5.2 | 11.3 | 0.00 | 0.00 | 0.00 | 88 | 1001.7 |
| 20260509115056 | 51 | 189 | 5.2 | 10.4 | 0.00 | 0.00 | 0.00 | 89 | 1001.7 |
| 20260509114516 | 51 | 185 | 5.2 | 10.4 | 0.00 | 0.00 | 0.00 | 89 | 1001.8 |
| 20260509114016 | 50 | 186 | 3.5 | 7.8 | 0.00 | 0.00 | 0.00 | 89 | 1001.8 |
| 20260509113516 | 50 | 189 | 3.5 | 7.8 | 0.00 | 0.00 | 0.00 | 89 | 1001.9 |
| 20260509113016 | 50 | 196 | 3.5 | 8.7 | 0.00 | 0.00 | 0.00 | 89 | 1002.0 |
| 20260509112516 | 50 | 201 | 3.5 | 11.3 | 0.00 | 0.00 | 0.00 | 89 | 1002.0 |
| 20260509112017 | 50 | 191 | 5.2 | 15.6 | 0.00 | 0.00 | 0.00 | 89 | 1001.9 |
| 20260509111516 | 50 | 197 | 6.1 | 15.6 | 0.00 | 0.00 | 0.00 | 89 | 1002.1 |
| 20260509111036 | 50 | 203 | 7.0 | 14.8 | 0.00 | 0.00 | 0.00 | 90 | 1002.0 |
| 20260509110516 | 50 | 183 | 5.2 | 14.8 | 0.00 | 0.00 | 0.00 | 90 | 1001.9 |
| 20260509110016 | 50 | 200 | 4.3 | 10.4 | 0.00 | 0.00 | 0.00 | 90 | 1001.8 |
| 20260509105516 | 49 | 190 | 4.3 | 11.3 | 0.00 | 0.00 | 0.00 | 90 | 1001.9 |
| 20260509105017 | 49 | 179 | 5.2 | 11.3 | 0.00 | 0.00 | 0.00 | 90 | 1001.9 |
| 20260509104517 | 49 | 174 | 4.3 | 10.4 | 0.00 | 0.00 | 0.00 | 90 | 1001.8 |
| 20260509104016 | 49 | 168 | 4.3 | 10.4 | 0.00 | 0.00 | 0.00 | 90 | 1001.9 |
| 20260509103516 | 49 | 176 | 4.3 | 9.6 | 0.00 | 0.00 | 0.00 | 90 | 1002.0 |
| 20260509103017 | 49 | 181 | 4.3 | 9.6 | 0.00 | 0.00 | 0.00 | 90 | 1002.1 |
| 20260509102536 | 49 | 193 | 3.5 | 7.0 | 0.00 | 0.00 | 0.00 | 90 | 1002.1 |
| 20260509102016 | 49 | 181 | 3.5 | 7.0 | 0.00 | 0.00 | 0.00 | 90 | 1002.2 |
| 20260509101537 | 49 | 184 | 3.5 | 7.8 | 0.00 | 0.00 | 0.00 | 90 | 1002.2 |
| 20260509101016 | 49 | 173 | 3.5 | 7.8 | 0.00 | 0.00 | 0.00 | 90 | 1002.1 |
| 20260509100516 | 49 | 189 | 2.6 | 8.7 | 0.00 | 0.00 | 0.00 | 90 | 1002.2 |
| 20260509100017 | 49 | 182 | 3.5 | 8.7 | 0.00 | 0.00 | 0.00 | 90 | 1002.3 |
| 20260509095517 | 49 | 179 | 4.3 | 7.8 | 0.00 | 0.00 | 0.00 | 90 | 1002.3 |
| 20260509095017 | 49 | 176 | 3.5 | 7.0 | 0.00 | 0.00 | 0.00 | 90 | 1002.3 |
| 20260509094516 | 49 | 177 | 3.5 | 6.1 | 0.00 | 0.00 | 0.00 | 90 | 1002.4 |
| 20260509094016 | 49 | 174 | 2.6 | 6.1 | 0.00 | 0.00 | 0.00 | 89 | 1002.5 |
| 20260509093517 | 49 | 178 | 2.6 | 5.2 | 0.00 | 0.00 | 0.00 | 89 | 1002.5 |
| 20260509093016 | 49 | 192 | 0.9 | 5.2 | 0.00 | 0.00 | 0.00 | 89 | 1002.5 |
| 20260509092516 | 49 | 172 | 1.7 | 5.2 | 0.00 | 0.00 | 0.00 | 89 | 1002.5 |
| 20260509092036 | 49 | 166 | 1.7 | 7.8 | 0.00 | 0.00 | 0.00 | 89 | 1002.5 |
| 20260509091516 | 49 | 168 | 3.5 | 7.8 | 0.00 | 0.00 | 0.00 | 89 | 1002.4 |
| 20260509091016 | 49 | 165 | 2.6 | 6.1 | 0.00 | 0.00 | 0.00 | 89 | 1002.6 |
| 20260509090517 | 49 | 172 | 1.7 | 6.1 | 0.00 | 0.00 | 0.00 | 89 | 1002.6 |
| 20260509090017 | 49 | 173 | 2.6 | 5.2 | 0.00 | 0.00 | 0.00 | 89 | 1002.7 |
| 20260509085556 | 49 | 159 | 1.7 | 6.1 | 0.00 | 0.00 | 0.00 | 89 | 1002.6 |
| 20260509085016 | 49 | 166 | 2.6 | 6.1 | 0.00 | 0.00 | 0.00 | 89 | 1002.7 |
| 20260509084516 | 49 | 171 | 2.6 | 7.8 | 0.00 | 0.00 | 0.00 | 89 | 1002.7 |
| 20260509084016 | 49 | 173 | 2.6 | 7.8 | 0.00 | 0.00 | 0.00 | 89 | 1002.8 |
| 20260509083516 | 48 | 161 | 2.6 | 8.7 | 0.00 | 0.00 | 0.00 | 89 | 1002.8 |
| 20260509083016 | 48 | 157 | 2.6 | 8.7 | 0.00 | 0.00 | 0.00 | 89 | 1002.8 |
| 20260509082516 | 48 | 166 | 1.7 | 6.1 | 0.00 | 0.00 | 0.00 | 89 | 1002.8 |
| 20260509082016 | 48 | 171 | 1.7 | 5.2 | 0.00 | 0.00 | 0.00 | 88 | 1002.9 |
| 20260509081516 | 48 | 161 | 1.7 | 5.2 | 0.00 | 0.00 | 0.00 | 88 | 1002.9 |
| 20260509081016 | 48 | 154 | 1.7 | 7.0 | 0.00 | 0.00 | 0.00 | 88 | 1003.0 |
| 20260509080516 | 48 | 153 | 1.7 | 7.0 | 0.00 | 0.00 | 0.00 | 88 | 1003.1 |
| 20260509080016 | 48 | 150 | 1.7 | 4.3 | 0.00 | 0.00 | 0.00 | 88 | 1003.1 |
| 20260509075516 | 48 | 159 | 1.7 | 5.2 | 0.00 | 0.00 | 0.00 | 88 | 1003.2 |
| 20260509075016 | 48 | 160 | 1.7 | 6.1 | 0.00 | 0.00 | 0.00 | 88 | 1003.2 |
| 20260509074517 | 48 | 168 | 1.7 | 6.1 | 0.00 | 0.00 | 0.00 | 88 | 1003.3 |
| 20260509074016 | 48 | 149 | 2.6 | 5.2 | 0.00 | 0.00 | 0.00 | 88 | 1003.3 |
| 20260509073516 | 47 | 143 | 1.7 | 5.2 | 0.00 | 0.00 | 0.00 | 87 | 1003.3 |
| 20260509073016 | 47 | 155 | 1.7 | 5.2 | 0.00 | 0.00 | 0.00 | 86 | 1003.4 |
| 20260509072516 | 47 | 168 | 0.9 | 3.5 | 0.00 | 0.00 | 0.00 | 85 | 1003.5 |
| 20260509072016 | 47 | 159 | 0.9 | 3.5 | 0.00 | 0.00 | 0.00 | 85 | 1003.6 |
| 20260509071516 | 47 | 147 | 0.9 | 3.5 | 0.00 | 0.00 | 0.00 | 85 | 1003.6 |
| 20260509071016 | 47 | 154 | 0.9 | 3.5 | 0.00 | 0.00 | 0.00 | 85 | 1003.6 |
| 20260509070517 | 47 | 193 | 0.0 | 3.5 | 0.00 | 0.00 | 0.00 | 84 | 1003.7 |
| 20260509070015 | 47 | 157 | 0.0 | 3.5 | 0.00 | 0.00 | 0.00 | 83 | 1003.7 |
| 20260509065516 | 47 | 143 | 0.9 | 4.3 | 0.00 | 0.00 | 0.00 | 83 | 1003.6 |
| 20260509065016 | 46 | 141 | 1.7 | 4.3 | 0.00 | 0.00 | 0.00 | 81 | 1003.6 |
| 20260509064516 | 46 | 154 | 0.0 | 2.6 | 0.00 | 0.00 | 0.00 | 79 | 1003.8 |
| 20260509064016 | 46 | 157 | 0.0 | 3.5 | 0.00 | 0.00 | 0.00 | 78 | 1003.9 |
| 20260509063536 | 46 | 148 | 0.0 | 3.5 | 0.00 | 0.00 | 0.00 | 78 | 1003.9 |
| 20260509063036 | 46 | 142 | 0.9 | 2.6 | 0.00 | 0.00 | 0.00 | 76 | 1003.9 |
| 20260509062536 | 46 | 140 | 0.9 | 4.3 | 0.00 | 0.00 | 0.00 | 77 | 1004.0 |
| 20260509062016 | 46 | 139 | 1.7 | 4.3 | 0.00 | 0.00 | 0.00 | 75 | 1004.0 |
| 20260509061515 | 46 | 132 | 1.7 | 4.3 | 0.00 | 0.00 | 0.00 | 74 | 1004.0 |
| 20260509061016 | 45 | 127 | 1.7 | 4.3 | 0.00 | 0.00 | 0.00 | 73 | 1004.0 |
| 20260509060515 | 45 | 135 | 1.7 | 3.5 | 0.00 | 0.00 | 0.00 | 73 | 1004.0 |
| 20260509060015 | 45 | 132 | 1.7 | 3.5 | 0.00 | 0.00 | 0.00 | 72 | 1004.2 |
| 20260509055516 | 44 | 149 | 1.7 | 3.5 | 0.00 | 0.00 | 0.00 | 71 | 1004.2 |
| 20260509055035 | 44 | 144 | 0.9 | 2.6 | 0.00 | 0.00 | 0.00 | 71 | 1004.2 |